Volver al catálogo

THORAD AGENA D DEB

ActivoSSO
NORAD 5388·DEBRIS·🇺🇸 United States

Lanzado Apr 8, 1970 desde Vandenberg Space Force Base

Loading…

Próximos Pases (próximas 24 horas)

TLE

ActualizadoSource: Space-Track

Época: Sep 14, 2026, 07:11 UTC

1 05388U 70025KT  26257.29978275  .00000508  00000-0  98668-3 0  9992
2 05388  99.9313 194.8769 0136232 310.8533 204.0193 13.38360060737763

Sigue THORAD AGENA D DEB en tiempo real con AllMySat

Download on the App Store